LFMYLFTH

Guest
Details From LFMY - Salon AB
To LFTH - Le Palyvestre Navy
Flight Number -
Tags generated
Created
Modified
Stats Distance 55 nm / 101 km
Max Altitude 2,900 ft / 884 m
Waypoints 3
Social Downloads 2
Likes 0
Share VATSIM

Download

Looking for another format? Having issues loading an existing format? Contact us
Advertisement - Login to hide

Notes

Basic altitude profile: - Ascent Rate: 2500ft/min - Ascent Speed: 250kts - Cruise Altitude: 35000ft - Cruise Speed: 420kts - Descent Rate: 1500ft/min - Descent Speed: 250kts

Route

LFMY RIKPO LFTH

ID Type Via Altitude Latitude Longitude Leg Dist Tot Dist Heading (true) Name
O LFMY APT - 0 ft / 0 m 43.60892˚ 5.11352˚ - 0 nm - Salon AB
RIKPO FIX - 2,900 ft / 884 m 43.22806˚ 5.89111˚ 40 nm 40 nm 124° / 124° -
O LFTH APT - 0 ft / 0 m 43.09812˚ 6.14976˚ 13 nm 54 nm 124° / 125° Le Palyvestre Navy

Altitude Profile

Advertisement - Login to hide

LFMY

Details ICAO LFMY
Name Salon AB
Region France
Timezone Europe/Paris (UTC+2.0)
Stats Elevation 197 ft / 60 m (AMSL)
Location 43.608925° 5.113519°
Runways 3
Magnetic Variation 1.577° E

METAR

LFMY 210930Z AUTO VRB02KT CAVOK 24/12 Q1012 TEMPO VRB15G25KT 2000 TSRA BKN030CB

Decode

TAF

TAF LFMY 210913Z 2109/2209 VRB05KT CAVOK TEMPO 2111/2120 5000 SHRA SCT030 SCT050TCU PROB40 TEMPO 2111/2117 VRB15G25KT 2000 TSRA BKN030CB

Decode

Departure Runways

ID Width Length Bearing (true) Bearing (mag) Surface Threshold Offset Overrun Length
09 131 ft / 40 m 2,573 ft / 784 m 90.96° 89.38° Grass 0 ft / 0 m 0 ft / 0 m
16 148 ft / 45 m 6,570 ft / 2,003 m 159.78° 158.20° Asphalt 0 ft / 0 m 545 ft / 166 m
17 295 ft / 90 m 3,167 ft / 965 m 164.43° 162.85° Grass 0 ft / 0 m 0 ft / 0 m
27 131 ft / 40 m 2,573 ft / 784 m 270.96° 269.38° Grass 0 ft / 0 m 0 ft / 0 m
34 148 ft / 45 m 6,570 ft / 2,003 m 339.78° 338.20° Asphalt 0 ft / 0 m 650 ft / 198 m
35R 295 ft / 90 m 3,167 ft / 965 m 344.44° 342.86° Grass 0 ft / 0 m 0 ft / 0 m

LFTH

Details ICAO LFTH (TLN)
Name Le Palyvestre Navy
Region France
Timezone Europe/Paris (UTC+2.0)
Stats Elevation 6 ft / 2 m (AMSL)
Location 43.098120° 6.149761°
Runways 2
Magnetic Variation 1.821° E

METAR

LFTH 210930Z AUTO 12008KT 080V170 CAVOK 23/15 Q1012 TEMPO 4000 SHRA SCT020TCU BKN030

Decode

TAF

TAF LFTH 210800Z 2109/2209 VRB03KT CAVOK TEMPO 2109/2209 16009KT 4000 SHRA SCT020TCU BKN030 PROB30 TEMPO 2112/2124 VRB15G25KT 2000 TSRA BKN015CB TEMPO 2200/2204 SHRA SCT025TCU

Decode

Destination Runways

ID Width Length Bearing (true) Bearing (mag) Surface Threshold Offset Overrun Length
05 148 ft / 45 m 6,956 ft / 2,120 m 51.12° 49.30° Concrete 722 ft / 220 m 361 ft / 110 m
14 164 ft / 50 m 6,302 ft / 1,921 m 135.18° 133.36° Concrete 951 ft / 290 m 0 ft / 0 m
23 148 ft / 45 m 6,956 ft / 2,120 m 231.13° 229.31° Concrete 0 ft / 0 m 141 ft / 43 m
32 164 ft / 50 m 6,302 ft / 1,921 m 315.20° 313.38° Concrete 295 ft / 90 m 443 ft / 135 m

Popular Alternatives